Darstellungsparameter: Aktuell verwendete Einstellungen:
Skalierung der Graphiken ... ?
xyx+y,   Skalierungsfaktor:      Skalierung: Modus: x, Faktor: 1
Darstellungszeitraum ... ?
Vom - - bis: - -   Zeitraum: 28.03.2011 - 30.03.2011
Min/Max/Avg-Anzeige ... ?
Zeige MMA aktuell
Zeige MMA Monat
Zeige MMA alles
Zeige --A aktuell
Zeige --A Monat
Zeige --A alles
Keine MMA-Anzeige
MMA:
Average (ber die Originaldaten)
MMA-Basis: 23.02.2003 - 29.09.2020
Quicknavigation für Darstellung... ?
Tage:      1T, 2T, 3T, 5T -1T -2T -3T -5T +1T +2T +3T +5T
Wochen: 1W, 2W, 3W -1W -2W -3W +1W +2W +3W
Monate: 1M, 3M, 6M -1M -3M -6M +1M +3M +6M
Jahre:    1J, 3J, 5J, 10J -1J -3J -5J -10J +1J +3J +5J +10J
Nutze für die Darstellung ... ?
Originaldaten oder Mittelwerte auf ...
Stundenbasis Tagesbasis Wochenbasis
Monatsbasis Jahresbasis      Datenbasis: Original-Daten
Darstellen als:
Statistik (Auto) Statistik J:M      Darstellung:
Zur Graphik,    zurück zur Übersicht aller Sensoren.
 
Tabellarische Datenbersicht: ?
 
Sensor: Nr:Datum:Temp:Abs-Feuchte:Windchill:Wind:
Aussen-T/F 1 28-03-2011 00:03:04 6 C 5.15 g/m*3 6 C 0 km/h
2 28-03-2011 00:15:04 5.6 C 5.02 g/m*3 5.6 C 0 km/h
3 28-03-2011 00:27:04 5.4 C 5.16 g/m*3 5.4 C 0 km/h
4 28-03-2011 00:39:04 5.4 C 5.23 g/m*3 5.4 C 0 km/h
5 28-03-2011 00:51:05 4.9 C 5.06 g/m*3 4.9 C 0 km/h
6 28-03-2011 01:03:05 4.3 C 4.86 g/m*3 4.3 C 0 km/h
7 28-03-2011 01:15:05 4 C 4.9 g/m*3 4 C 0 km/h
8 28-03-2011 01:27:05 4 C 5.02 g/m*3 4 C 0 km/h
9 28-03-2011 01:39:05 4.2 C 5.22 g/m*3 4.2 C 0 km/h
10 28-03-2011 01:51:05 3.5 C 4.98 g/m*3 3.5 C 0 km/h
11 28-03-2011 02:03:05 3.2 C 4.94 g/m*3 3.2 C 0 km/h
12 28-03-2011 02:15:05 2.8 C 4.87 g/m*3 2.8 C 0 km/h
13 28-03-2011 02:27:05 2.9 C 4.96 g/m*3 2.9 C 0 km/h
14 28-03-2011 02:39:05 2.6 C 4.86 g/m*3 2.6 C 0 km/h
15 28-03-2011 02:51:05 2.5 C 4.83 g/m*3 2.5 C 0 km/h
16 28-03-2011 03:03:05 2.3 C 4.82 g/m*3 2.3 C 0 km/h
17 28-03-2011 03:15:05 2.3 C 4.82 g/m*3 2.3 C 0 km/h
18 28-03-2011 03:27:05 2.1 C 4.81 g/m*3 2.1 C 0 km/h
19 28-03-2011 03:39:05 2.1 C 4.81 g/m*3 2.1 C 0 km/h
20 28-03-2011 03:51:05 1.9 C 4.8 g/m*3 1.9 C 0 km/h
21 28-03-2011 04:03:05 2.8 C 5.16 g/m*3 2.8 C 0 km/h
22 28-03-2011 04:15:05 3 C 5.23 g/m*3 3 C 0 km/h
23 28-03-2011 04:27:05 2.8 C 5.16 g/m*3 2.8 C 0 km/h
24 28-03-2011 04:39:05 2.5 C 5 g/m*3 2.5 C 0 km/h
25 28-03-2011 04:51:05 2.3 C 4.93 g/m*3 2.3 C 0 km/h
Sensor: Nr:Datum:Temp:Abs-Feuchte:Windchill:Wind:
Aussen-T/F 26 28-03-2011 05:03:06 2.2 C 4.9 g/m*3 2.2 C 0 km/h
27 28-03-2011 05:15:06 2.2 C 4.96 g/m*3 2.2 C 0 km/h
28 28-03-2011 05:27:06 1.9 C 4.86 g/m*3 1.9 C 0 km/h
29 28-03-2011 05:39:06 1.6 C 4.81 g/m*3 1.6 C 0 km/h
30 28-03-2011 05:51:06 1.3 C 4.72 g/m*3 1.3 C 0 km/h
31 28-03-2011 06:03:06 1.3 C 4.72 g/m*3 1.3 C 0 km/h
32 28-03-2011 06:15:06 1.1 C 4.65 g/m*3 1.1 C 0 km/h
33 28-03-2011 06:27:06 1.3 C 4.72 g/m*3 1.3 C 0 km/h
34 28-03-2011 06:39:06 1.1 C 4.65 g/m*3 1.1 C 0 km/h
35 28-03-2011 06:51:06 0.9 C 4.64 g/m*3 0.9 C 0 km/h
36 28-03-2011 07:03:03 0.8 C 4.61 g/m*3 0.8 C 0 km/h
37 28-03-2011 07:15:03 0.9 C 4.64 g/m*3 0.9 C 0 km/h
38 28-03-2011 07:27:03 0.7 C 4.63 g/m*3 0.7 C 0 km/h
39 28-03-2011 07:39:04 0.4 C 4.53 g/m*3 0.4 C 0 km/h
40 28-03-2011 07:51:02 0.3 C 4.5 g/m*3 0.3 C 0 km/h
41 28-03-2011 08:03:02 0.5 C 4.56 g/m*3 0.5 C 0 km/h
42 28-03-2011 08:15:02 0.8 C 4.66 g/m*3 0.8 C 0 km/h
43 28-03-2011 08:27:02 1.3 C 4.82 g/m*3 1.3 C 0 km/h
44 28-03-2011 08:39:02 1.2 C 4.79 g/m*3 1.2 C 0 km/h
45 28-03-2011 08:51:02 1.9 C 5.02 g/m*3 1.9 C 0 km/h
46 28-03-2011 09:03:02 1.9 C 5.02 g/m*3 1.9 C 0 km/h
47 28-03-2011 09:15:02 2.2 C 5.07 g/m*3 2.2 C 0 km/h
48 28-03-2011 09:27:02 2.4 C 5.14 g/m*3 2.4 C 0 km/h
49 28-03-2011 09:39:02 2.6 C 5.21 g/m*3 2.6 C 0 km/h
50 28-03-2011 09:51:02 3 C 5.29 g/m*3 3 C 0 km/h
Sensor: Nr:Datum:Temp:Abs-Feuchte:Windchill:Wind:
Aussen-T/F 51 28-03-2011 10:03:02 3.2 C 5.36 g/m*3 3.2 C 0 km/h
52 28-03-2011 10:15:02 4 C 5.59 g/m*3 4 C 0 km/h
53 28-03-2011 10:27:02 4.2 C 5.61 g/m*3 4.2 C 0 km/h
54 28-03-2011 10:39:02 5.3 C 5.54 g/m*3 5.3 C 0 km/h
55 28-03-2011 10:51:02 6.6 C 5.21 g/m*3 6.6 C 0 km/h
56 28-03-2011 11:03:02 7.3 C 4.82 g/m*3 7.3 C 0 km/h
57 28-03-2011 11:15:02 7.9 C 4.52 g/m*3 7.9 C 0 km/h
58 28-03-2011 11:27:03 8.5 C 4.44 g/m*3 8.5 C 0 km/h
59 28-03-2011 11:39:01 9.3 C 3.86 g/m*3 9.3 C 0 km/h
60 28-03-2011 11:51:02 10 C 3.95 g/m*3 10 C 0 km/h
61 28-03-2011 12:03:01 10.4 C 3.76 g/m*3 10.4 C 0 km/h
62 28-03-2011 12:15:01 11 C 3.4 g/m*3 11 C 0 km/h
63 28-03-2011 12:27:01 11 C 3.3 g/m*3 11 C 0 km/h
64 28-03-2011 12:39:02 11.8 C 3.47 g/m*3 11.8 C 0 km/h
65 28-03-2011 12:51:02 12.2 C 3.24 g/m*3 12.2 C 0 km/h
66 28-03-2011 13:03:02 12.4 C 3.17 g/m*3 12.4 C 0 km/h
67 28-03-2011 13:15:02 13.2 C 3.33 g/m*3 13.2 C 0 km/h
68 28-03-2011 13:27:02 13.7 C 2.96 g/m*3 13.7 C 0 km/h
69 28-03-2011 13:39:02 14 C 3.02 g/m*3 14 C 0 km/h
70 28-03-2011 13:51:01 16.1 C 2.74 g/m*3 16.1 C 0 km/h
71 28-03-2011 14:03:02 14.6 C 2.5 g/m*3 14.6 C 0 km/h
72 28-03-2011 14:15:01 14.9 C 2.55 g/m*3 14.9 C 0 km/h
73 28-03-2011 14:27:01 14.3 C 2.46 g/m*3 14.3 C 0 km/h
74 28-03-2011 14:39:01 14.1 C 2.43 g/m*3 14.1 C 0 km/h
75 28-03-2011 14:51:01 15 C 2.56 g/m*3 15 C 0 km/h
Sensor: Nr:Datum:Temp:Abs-Feuchte:Windchill:Wind:
Aussen-T/F 76 28-03-2011 15:03:02 16 C 2.72 g/m*3 16 C 0 km/h
77 28-03-2011 15:15:01 16.2 C 2.76 g/m*3 16.2 C 0 km/h
78 28-03-2011 15:27:01 16.6 C 2.83 g/m*3 16.6 C 0 km/h
79 28-03-2011 15:39:01 20.1 C 3.48 g/m*3 20.1 C 0 km/h
80 28-03-2011 15:51:01 17.2 C 2.93 g/m*3 17.2 C 0 km/h
81 28-03-2011 16:03:01 18.9 C 3.24 g/m*3 18.9 C 0 km/h
82 28-03-2011 16:15:02 19.4 C 3.34 g/m*3 19.4 C 0 km/h
83 28-03-2011 16:27:02 19.7 C 3.4 g/m*3 19.7 C 0 km/h
84 28-03-2011 16:39:01 18.3 C 3.13 g/m*3 18.3 C 0 km/h
85 28-03-2011 16:51:02 18.4 C 3.15 g/m*3 18.4 C 0 km/h
86 28-03-2011 17:03:01 16.9 C 2.88 g/m*3 16.9 C 0 km/h
87 28-03-2011 17:15:01 18.4 C 3.15 g/m*3 18.4 C 0 km/h
88 28-03-2011 17:27:01 19.2 C 3.3 g/m*3 19.2 C 0 km/h
89 28-03-2011 17:39:01 18.5 C 3.16 g/m*3 18.5 C 0 km/h
90 28-03-2011 17:51:02 16.7 C 2.84 g/m*3 16.7 C 0 km/h
91 28-03-2011 18:03:02 16.7 C 2.84 g/m*3 16.7 C 0 km/h
92 28-03-2011 18:15:02 17.1 C 2.91 g/m*3 17.1 C 0 km/h
93 28-03-2011 18:27:02 16.4 C 2.79 g/m*3 16.4 C 0 km/h
94 28-03-2011 18:39:02 15.5 C 2.64 g/m*3 15.5 C 0 km/h
95 28-03-2011 18:51:02 14.9 C 2.55 g/m*3 14.9 C 0 km/h
96 28-03-2011 19:03:02 14.6 C 2.5 g/m*3 14.6 C 0 km/h
97 28-03-2011 19:15:01 13.5 C 2.46 g/m*3 13.5 C 0 km/h
98 28-03-2011 19:27:01 12.8 C 2.8 g/m*3 12.8 C 0 km/h
99 28-03-2011 19:39:02 11.2 C 3.04 g/m*3 11.2 C 0 km/h
100 28-03-2011 19:51:02 9.8 C 3.34 g/m*3 9.8 C 0 km/h
Sensor: Nr:Datum:Temp:Abs-Feuchte:Windchill:Wind:
Aussen-T/F 101 28-03-2011 20:03:02 9.6 C 3.3 g/m*3 9.6 C 0 km/h
102 28-03-2011 20:15:02 9 C 3.26 g/m*3 9 C 0 km/h
103 28-03-2011 20:27:02 9.6 C 3.21 g/m*3 9.6 C 0 km/h
104 28-03-2011 20:39:02 9.5 C 3.09 g/m*3 9.5 C 0 km/h
105 28-03-2011 20:51:02 9.2 C 3.21 g/m*3 9.2 C 0 km/h
106 28-03-2011 21:03:02 7.8 C 3.51 g/m*3 7.8 C 0 km/h
107 28-03-2011 21:15:02 7.1 C 3.67 g/m*3 7.1 C 0 km/h
108 28-03-2011 21:27:02 6.9 C 3.77 g/m*3 6.9 C 0 km/h
109 28-03-2011 21:39:02 6.5 C 3.67 g/m*3 6.5 C 0 km/h
110 28-03-2011 21:51:02 6.2 C 3.75 g/m*3 6.2 C 0 km/h
111 28-03-2011 22:03:02 5.6 C 3.68 g/m*3 5.6 C 0 km/h
112 28-03-2011 22:15:02 5.8 C 3.72 g/m*3 5.8 C 0 km/h
113 28-03-2011 22:27:02 6.2 C 3.75 g/m*3 6.2 C 0 km/h
114 28-03-2011 22:39:02 5.6 C 3.82 g/m*3 5.6 C 0 km/h
115 28-03-2011 22:51:02 5.3 C 4.02 g/m*3 5.3 C 0 km/h
116 28-03-2011 23:03:01 4.7 C 3.93 g/m*3 4.7 C 0 km/h
117 28-03-2011 23:15:02 4.4 C 4.05 g/m*3 4.4 C 0 km/h
118 28-03-2011 23:27:02 3.3 C 3.88 g/m*3 3.3 C 0 km/h
119 28-03-2011 23:39:02 2.9 C 4.02 g/m*3 2.9 C 0 km/h
120 28-03-2011 23:51:02 2.3 C 3.91 g/m*3 2.3 C 0 km/h
121 29-03-2011 00:03:03 1.7 C 3.81 g/m*3 1.7 C 0 km/h
122 29-03-2011 00:15:03 1.6 C 3.89 g/m*3 1.6 C 0 km/h
123 29-03-2011 00:27:03 1.2 C 3.84 g/m*3 1.2 C 0 km/h
124 29-03-2011 00:39:02 1.2 C 3.89 g/m*3 1.2 C 0 km/h
125 29-03-2011 00:51:03 0.8 C 3.84 g/m*3 0.8 C 0 km/h
Sensor: Nr:Datum:Temp:Abs-Feuchte:Windchill:Wind:
Aussen-T/F 126 29-03-2011 01:03:02 0.6 C 3.84 g/m*3 0.6 C 0 km/h
127 29-03-2011 01:15:02 0.7 C 3.86 g/m*3 0.7 C 0 km/h
128 29-03-2011 01:27:02 0.5 C 3.81 g/m*3 0.5 C 0 km/h
129 29-03-2011 01:39:02 0.3 C 3.76 g/m*3 0.3 C 0 km/h
130 29-03-2011 01:51:02 0.2 C 3.78 g/m*3 0.2 C 0 km/h
131 29-03-2011 02:03:02 0 C 3.73 g/m*3 0 C 0 km/h
132 29-03-2011 02:15:02 -0.2 C 3.73 g/m*3 -0.2 C 0 km/h
133 29-03-2011 02:27:02 -0.4 C 3.68 g/m*3 -0.4 C 0 km/h
134 29-03-2011 02:39:02 -0.5 C 3.7 g/m*3 -0.5 C 0 km/h
135 29-03-2011 02:52:04 -0.6 C 3.67 g/m*3 -0.6 C 0 km/h
136 29-03-2011 03:04:04 -0.8 C 3.67 g/m*3 -0.8 C 0 km/h
137 29-03-2011 03:16:03 -0.5 C 3.79 g/m*3 -0.5 C 0 km/h
138 29-03-2011 03:28:03 -0.7 C 3.78 g/m*3 -0.7 C 0 km/h
139 29-03-2011 03:40:02 -1 C 3.71 g/m*3 -1 C 0 km/h
140 29-03-2011 03:52:02 -1.2 C 3.66 g/m*3 -1.2 C 0 km/h
141 29-03-2011 04:04:01 -1.2 C 3.7 g/m*3 -1.2 C 0 km/h
142 29-03-2011 04:16:02 -1.3 C 3.72 g/m*3 -1.3 C 0 km/h
143 29-03-2011 04:28:03 -1.5 C 3.67 g/m*3 -1.5 C 0 km/h
144 29-03-2011 04:40:01 -1.6 C 3.64 g/m*3 -1.6 C 0 km/h
145 29-03-2011 04:52:02 -1.7 C 3.62 g/m*3 -1.7 C 0 km/h
146 29-03-2011 05:04:02 -1.9 C 3.61 g/m*3 -1.9 C 0 km/h
147 29-03-2011 05:16:02 -2 C 3.58 g/m*3 -2 C 0 km/h
148 29-03-2011 05:28:02 -2 C 3.58 g/m*3 -2 C 0 km/h
149 29-03-2011 05:40:02 -1.9 C 3.61 g/m*3 -1.9 C 0 km/h
150 29-03-2011 05:52:02 -2.2 C 3.53 g/m*3 -2.2 C 0 km/h
Sensor: Nr:Datum:Temp:Abs-Feuchte:Windchill:Wind:
Aussen-T/F 151 29-03-2011 06:04:02 -2 C 3.63 g/m*3 -2 C 0 km/h
152 29-03-2011 06:16:01 -2.1 C 3.6 g/m*3 -2.1 C 0 km/h
153 29-03-2011 06:28:01 -2.1 C 3.64 g/m*3 -2.1 C 0 km/h
154 29-03-2011 06:40:02 -2.1 C 3.64 g/m*3 -2.1 C 0 km/h
155 29-03-2011 06:52:02 -1.7 C 3.79 g/m*3 -1.7 C 0 km/h
156 29-03-2011 07:04:02 -2.1 C 3.64 g/m*3 -2.1 C 0 km/h
157 29-03-2011 07:16:01 -2.1 C 3.64 g/m*3 -2.1 C 0 km/h
158 29-03-2011 07:28:01 -2.2 C 3.66 g/m*3 -2.2 C 0 km/h
159 29-03-2011 07:40:02 -2.4 C 3.61 g/m*3 -2.4 C 0 km/h
160 29-03-2011 07:52:01 -2.3 C 3.63 g/m*3 -2.3 C 0 km/h
161 29-03-2011 08:04:02 -2 C 3.71 g/m*3 -2 C 0 km/h
162 29-03-2011 08:16:01 -1.9 C 3.74 g/m*3 -1.9 C 0 km/h
163 29-03-2011 08:28:01 -1.5 C 3.84 g/m*3 -1.5 C 0 km/h
164 29-03-2011 08:40:01 -1.5 C 3.84 g/m*3 -1.5 C 0 km/h
165 29-03-2011 08:52:01 -1.3 C 3.9 g/m*3 -1.3 C 0 km/h
166 29-03-2011 09:04:01 -1.1 C 3.95 g/m*3 -1.1 C 0 km/h
167 29-03-2011 09:16:02 -0.6 C 4.09 g/m*3 -0.6 C 0 km/h
168 29-03-2011 09:28:02 -0.3 C 4.18 g/m*3 -0.3 C 0 km/h
169 29-03-2011 09:40:01 0.2 C 4.37 g/m*3 0.2 C 0 km/h
170 29-03-2011 09:52:03 0.6 C 4.49 g/m*3 0.6 C 0 km/h
171 29-03-2011 10:04:02 1 C 4.52 g/m*3 1 C 0 km/h
172 29-03-2011 10:16:02 1.4 C 4.64 g/m*3 1.4 C 0 km/h
173 29-03-2011 10:28:02 2.3 C 4.76 g/m*3 2.3 C 0 km/h
174 29-03-2011 10:40:02 3 C 4.7 g/m*3 3 C 0 km/h
175 29-03-2011 10:52:02 4.2 C 4.77 g/m*3 4.2 C 0 km/h
Sensor: Nr:Datum:Temp:Abs-Feuchte:Windchill:Wind:
Aussen-T/F 176 29-03-2011 11:04:01 5.1 C 4.65 g/m*3 5.1 C 0 km/h
177 29-03-2011 11:16:01 6.2 C 4.19 g/m*3 6.2 C 0 km/h
178 29-03-2011 11:28:01 6.6 C 4.23 g/m*3 6.6 C 0 km/h
179 29-03-2011 11:40:01 7.4 C 4.29 g/m*3 7.4 C 0 km/h
180 29-03-2011 11:52:01 8.1 C 4.24 g/m*3 8.1 C 0 km/h
181 29-03-2011 12:04:01 8.9 C 4.29 g/m*3 8.9 C 0 km/h
182 29-03-2011 12:16:01 9.6 C 4.12 g/m*3 9.6 C 0 km/h
183 29-03-2011 12:28:01 10 C 4.04 g/m*3 10 C 0 km/h
184 29-03-2011 12:40:02 11.3 C 4.08 g/m*3 11.3 C 0 km/h
185 29-03-2011 12:52:02 12.2 C 3.99 g/m*3 12.2 C 0 km/h
186 29-03-2011 13:04:02 14 C 3.74 g/m*3 14 C 0 km/h
187 29-03-2011 13:16:01 14.3 C 3.81 g/m*3 14.3 C 0 km/h
188 29-03-2011 13:28:01 16 C 3.81 g/m*3 16 C 0 km/h
189 29-03-2011 13:40:02 16.3 C 3.61 g/m*3 16.3 C 0 km/h
190 29-03-2011 13:52:02 19.9 C 3.44 g/m*3 19.9 C 0 km/h
191 29-03-2011 14:04:02 18.5 C 3.16 g/m*3 18.5 C 0 km/h
192 29-03-2011 14:16:02 18.1 C 3.09 g/m*3 18.1 C 0 km/h
193 29-03-2011 14:28:02 18.1 C 3.09 g/m*3 18.1 C 0 km/h
194 29-03-2011 14:40:02 17.4 C 3.11 g/m*3 17.4 C 0 km/h
195 29-03-2011 14:52:02 18.9 C 3.4 g/m*3 18.9 C 0 km/h
196 29-03-2011 15:04:02 18.6 C 3.18 g/m*3 18.6 C 0 km/h
197 29-03-2011 15:16:02 19 C 3.26 g/m*3 19 C 0 km/h
198 29-03-2011 15:28:02 21.9 C 3.86 g/m*3 21.9 C 0 km/h
199 29-03-2011 15:40:02 22.2 C 3.93 g/m*3 22.2 C 0 km/h
200 29-03-2011 15:52:02 21.3 C 3.73 g/m*3 21.3 C 0 km/h
Sensor: Nr:Datum:Temp:Abs-Feuchte:Windchill:Wind:
Aussen-T/F 201 29-03-2011 16:04:03 24.2 C 4.4 g/m*3 24.2 C 0 km/h
202 29-03-2011 16:16:02 23.3 C 4.18 g/m*3 23.3 C 0 km/h
203 29-03-2011 16:28:02 22.1 C 3.9 g/m*3 22.1 C 0 km/h
204 29-03-2011 16:40:02 23.7 C 4.28 g/m*3 23.7 C 0 km/h
205 29-03-2011 16:52:01 24.9 C 4.58 g/m*3 24.9 C 0 km/h
206 29-03-2011 17:04:02 22.6 C 4.02 g/m*3 22.6 C 0 km/h
207 29-03-2011 17:16:01 23.1 C 4.13 g/m*3 23.1 C 0 km/h
208 29-03-2011 17:28:01 21 C 3.66 g/m*3 21 C 0 km/h
209 29-03-2011 17:40:02 20.5 C 3.56 g/m*3 20.5 C 0 km/h
210 29-03-2011 17:52:02 20.8 C 3.62 g/m*3 20.8 C 0 km/h
211 29-03-2011 18:04:02 20.4 C 3.54 g/m*3 20.4 C 0 km/h
212 29-03-2011 18:16:02 20.6 C 3.58 g/m*3 20.6 C 0 km/h
213 29-03-2011 18:28:02 20.3 C 3.52 g/m*3 20.3 C 0 km/h
214 29-03-2011 18:40:02 20.1 C 3.48 g/m*3 20.1 C 0 km/h
215 29-03-2011 18:52:02 19.5 C 3.36 g/m*3 19.5 C 0 km/h
216 29-03-2011 19:04:02 18.2 C 3.73 g/m*3 18.2 C 0 km/h
217 29-03-2011 19:16:02 16.3 C 4.16 g/m*3 16.3 C 0 km/h
218 29-03-2011 19:28:02 15.1 C 4 g/m*3 15.1 C 0 km/h
219 29-03-2011 19:40:02 13 C 4.54 g/m*3 13 C 0 km/h
220 29-03-2011 19:52:02 12.2 C 4.64 g/m*3 12.2 C 0 km/h
221 29-03-2011 20:04:02 11.5 C 4.65 g/m*3 11.5 C 0 km/h
222 29-03-2011 20:16:02 11.2 C 4.66 g/m*3 11.2 C 0 km/h
223 29-03-2011 20:28:02 10.5 C 4.75 g/m*3 10.5 C 0 km/h
224 29-03-2011 20:40:02 10.1 C 4.63 g/m*3 10.1 C 0 km/h
225 29-03-2011 20:52:01 10 C 4.7 g/m*3 10 C 0 km/h
Sensor: Nr:Datum:Temp:Abs-Feuchte:Windchill:Wind:
Aussen-T/F 226 29-03-2011 21:04:02 9.4 C 4.7 g/m*3 9.4 C 0 km/h
227 29-03-2011 21:16:01 9.1 C 4.79 g/m*3 9.1 C 0 km/h
228 29-03-2011 21:28:01 8.6 C 4.81 g/m*3 8.6 C 0 km/h
229 29-03-2011 21:40:02 8.1 C 4.74 g/m*3 8.1 C 0 km/h
230 29-03-2011 21:52:01 7.6 C 4.83 g/m*3 7.6 C 0 km/h
231 29-03-2011 22:04:02 7.6 C 4.83 g/m*3 7.6 C 0 km/h
232 29-03-2011 22:16:01 7.3 C 4.74 g/m*3 7.3 C 0 km/h
233 29-03-2011 22:28:01 7.9 C 4.85 g/m*3 7.9 C 0 km/h
234 29-03-2011 22:41:03 8.1 C 4.74 g/m*3 8.1 C 0 km/h
235 29-03-2011 22:53:03 6.7 C 4.71 g/m*3 6.7 C 0 km/h
236 29-03-2011 23:05:03 6.5 C 4.87 g/m*3 6.5 C 0 km/h
237 29-03-2011 23:17:03 6 C 4.72 g/m*3 6 C 0 km/h
238 29-03-2011 23:29:03 5.3 C 4.57 g/m*3 5.3 C 0 km/h
239 29-03-2011 23:41:03 5.3 C 4.64 g/m*3 5.3 C 0 km/h
240 29-03-2011 23:53:03 4.9 C 4.73 g/m*3 4.9 C 0 km/h
241 30-03-2011 00:05:03 4.7 C 4.66 g/m*3 4.7 C 0 km/h
242 30-03-2011 00:17:03 4.3 C 4.48 g/m*3 4.3 C 0 km/h
243 30-03-2011 00:29:03 4.1 C 4.48 g/m*3 4.1 C 0 km/h
244 30-03-2011 00:41:03 3.9 C 4.55 g/m*3 3.9 C 0 km/h
245 30-03-2011 00:53:03 3.6 C 4.52 g/m*3 3.6 C 0 km/h
246 30-03-2011 01:05:03 3.4 C 4.52 g/m*3 3.4 C 0 km/h
247 30-03-2011 01:17:03 3.4 C 4.58 g/m*3 3.4 C 0 km/h
248 30-03-2011 01:29:03 3.1 C 4.55 g/m*3 3.1 C 0 km/h
249 30-03-2011 01:41:03 2.8 C 4.58 g/m*3 2.8 C 0 km/h
250 30-03-2011 01:53:03 2.7 C 4.6 g/m*3 2.7 C 0 km/h
Sensor: Nr:Datum:Temp:Abs-Feuchte:Windchill:Wind:
Aussen-T/F 251 30-03-2011 02:05:04 2.7 C 4.66 g/m*3 2.7 C 0 km/h
252 30-03-2011 02:17:04 2.8 C 4.75 g/m*3 2.8 C 0 km/h
253 30-03-2011 02:29:04 3.7 C 5.05 g/m*3 3.7 C 0 km/h
254 30-03-2011 02:41:04 3.2 C 4.76 g/m*3 3.2 C 0 km/h
255 30-03-2011 02:53:04 2.9 C 4.72 g/m*3 2.9 C 0 km/h
256 30-03-2011 03:05:04 2.3 C 4.54 g/m*3 2.3 C 0 km/h
257 30-03-2011 03:17:04 1.9 C 4.53 g/m*3 1.9 C 0 km/h
258 30-03-2011 03:29:04 1.9 C 4.58 g/m*3 1.9 C 0 km/h
259 30-03-2011 03:41:04 1.6 C 4.54 g/m*3 1.6 C 0 km/h
260 30-03-2011 03:53:04 1.4 C 4.48 g/m*3 1.4 C 0 km/h
261 30-03-2011 04:05:04 1.3 C 4.45 g/m*3 1.3 C 0 km/h
262 30-03-2011 04:17:04 1 C 4.36 g/m*3 1 C 0 km/h
263 30-03-2011 04:29:04 0.8 C 4.35 g/m*3 0.8 C 0 km/h
264 30-03-2011 04:41:04 0.8 C 4.4 g/m*3 0.8 C 0 km/h
265 30-03-2011 04:53:04 1.2 C 4.53 g/m*3 1.2 C 0 km/h
266 30-03-2011 05:05:04 0.7 C 4.42 g/m*3 0.7 C 0 km/h
267 30-03-2011 05:17:04 0.5 C 4.36 g/m*3 0.5 C 0 km/h
268 30-03-2011 05:29:04 0.6 C 4.44 g/m*3 0.6 C 0 km/h
269 30-03-2011 05:41:04 0.7 C 4.47 g/m*3 0.7 C 0 km/h
270 30-03-2011 05:53:04 0.7 C 4.47 g/m*3 0.7 C 0 km/h
271 30-03-2011 06:05:05 0.5 C 4.41 g/m*3 0.5 C 0 km/h
272 30-03-2011 06:17:05 0.4 C 4.43 g/m*3 0.4 C 0 km/h
273 30-03-2011 06:29:05 0.2 C 4.37 g/m*3 0.2 C 0 km/h
274 30-03-2011 06:41:05 -0.1 C 4.23 g/m*3 -0.1 C 0 km/h
275 30-03-2011 06:53:05 -0.3 C 4.18 g/m*3 -0.3 C 0 km/h
Sensor: Nr:Datum:Temp:Abs-Feuchte:Windchill:Wind:
Aussen-T/F 276 30-03-2011 07:05:05 -0.3 C 4.22 g/m*3 -0.3 C 0 km/h
277 30-03-2011 07:17:02 0.1 C 4.34 g/m*3 0.1 C 0 km/h
278 30-03-2011 07:29:02 1 C 4.67 g/m*3 1 C 0 km/h
279 30-03-2011 07:41:02 0.8 C 4.61 g/m*3 0.8 C 0 km/h
280 30-03-2011 07:53:03 1.5 C 4.83 g/m*3 1.5 C 0 km/h
281 30-03-2011 08:05:02 2 C 4.95 g/m*3 2 C 0 km/h
282 30-03-2011 08:17:02 2.4 C 5.08 g/m*3 2.4 C 0 km/h
283 30-03-2011 08:29:02 2.9 C 5.2 g/m*3 2.9 C 0 km/h
284 30-03-2011 08:41:02 3.6 C 5.26 g/m*3 3.6 C 0 km/h
285 30-03-2011 08:53:02 3.8 C 4.96 g/m*3 3.8 C 0 km/h
286 30-03-2011 09:05:02 4.2 C 4.83 g/m*3 4.2 C 0 km/h
287 30-03-2011 09:17:02 4.5 C 4.67 g/m*3 4.5 C 0 km/h
288 30-03-2011 09:29:02 5.4 C 4.67 g/m*3 5.4 C 0 km/h
289 30-03-2011 09:41:02 5.4 C 4.47 g/m*3 5.4 C 0 km/h
290 30-03-2011 09:53:02 5.9 C 4.61 g/m*3 5.9 C 0 km/h
291 30-03-2011 10:05:01 6.2 C 4.63 g/m*3 6.2 C 0 km/h
292 30-03-2011 10:17:02 7 C 4.73 g/m*3 7 C 0 km/h
293 30-03-2011 10:29:02 8.8 C 4.96 g/m*3 8.8 C 0 km/h
294 30-03-2011 10:41:02 10 C 4.7 g/m*3 10 C 0 km/h
295 30-03-2011 10:53:02 10.5 C 4.75 g/m*3 10.5 C 0 km/h
296 30-03-2011 11:05:03 11.2 C 4.56 g/m*3 11.2 C 0 km/h
297 30-03-2011 11:17:02 11 C 4.4 g/m*3 11 C 0 km/h
298 30-03-2011 11:29:02 11 C 4.6 g/m*3 11 C 0 km/h
299 30-03-2011 11:41:03 11.3 C 4.69 g/m*3 11.3 C 0 km/h
300 30-03-2011 11:53:02 11.9 C 4.98 g/m*3 11.9 C 0 km/h
Sensor: Nr:Datum:Temp:Abs-Feuchte:Windchill:Wind:
Aussen-T/F 301 30-03-2011 12:05:02 11.7 C 5.02 g/m*3 11.7 C 0 km/h
302 30-03-2011 12:17:01 12 C 5.22 g/m*3 12 C 0 km/h
303 30-03-2011 12:29:01 13.6 C 5.65 g/m*3 13.6 C 0 km/h
304 30-03-2011 12:41:02 13.1 C 5.48 g/m*3 13.1 C 0 km/h
305 30-03-2011 12:53:02 13.1 C 5.71 g/m*3 13.1 C 0 km/h
306 30-03-2011 13:05:02 13.6 C 5.77 g/m*3 13.6 C 0 km/h
307 30-03-2011 13:17:02 13.9 C 5.75 g/m*3 13.9 C 0 km/h
308 30-03-2011 13:29:02 14.4 C 5.81 g/m*3 14.4 C 0 km/h
309 30-03-2011 13:41:02 14.6 C 5.88 g/m*3 14.6 C 0 km/h
310 30-03-2011 13:53:02 15.8 C 5.92 g/m*3 15.8 C 0 km/h
311 30-03-2011 14:05:02 15.7 C 5.75 g/m*3 15.7 C 0 km/h
312 30-03-2011 14:17:03 16 C 5.59 g/m*3 16 C 0 km/h
313 30-03-2011 14:29:03 16.2 C 5.65 g/m*3 16.2 C 0 km/h
314 30-03-2011 14:41:02 16.1 C 5.62 g/m*3 16.1 C 0 km/h
315 30-03-2011 14:53:02 16.8 C 5.72 g/m*3 16.8 C 0 km/h
316 30-03-2011 15:05:02 16.9 C 5.75 g/m*3 16.9 C 0 km/h
317 30-03-2011 15:17:03 16.4 C 5.72 g/m*3 16.4 C 0 km/h
318 30-03-2011 15:29:03 17.9 C 5.34 g/m*3 17.9 C 0 km/h
319 30-03-2011 15:41:02 17.6 C 5.55 g/m*3 17.6 C 0 km/h
320 30-03-2011 15:53:03 17 C 5.35 g/m*3 17 C 0 km/h
321 30-03-2011 16:05:02 16 C 5.45 g/m*3 16 C 0 km/h
322 30-03-2011 16:17:02 16.1 C 5.48 g/m*3 16.1 C 0 km/h
323 30-03-2011 16:29:02 16.4 C 5.58 g/m*3 16.4 C 0 km/h
324 30-03-2011 16:41:02 15.9 C 5.42 g/m*3 15.9 C 0 km/h
325 30-03-2011 16:53:02 15.4 C 5.52 g/m*3 15.4 C 0 km/h
Sensor: Nr:Datum:Temp:Abs-Feuchte:Windchill:Wind:
Aussen-T/F 326 30-03-2011 17:05:02 14 C 6.03 g/m*3 14 C 0 km/h
327 30-03-2011 17:17:02 14.2 C 7.2 g/m*3 14.2 C 0 km/h
328 30-03-2011 17:29:02 13.7 C 7.46 g/m*3 13.7 C 0 km/h
329 30-03-2011 17:41:01 14.1 C 7.77 g/m*3 14.1 C 0 km/h
330 30-03-2011 17:53:02 13.7 C 7.34 g/m*3 13.7 C 0 km/h
331 30-03-2011 18:05:01 13.7 C 7.34 g/m*3 13.7 C 0 km/h
332 30-03-2011 18:17:02 14.3 C 7.49 g/m*3 14.3 C 0 km/h
333 30-03-2011 18:29:02 15 C 7.05 g/m*3 15 C 0 km/h
334 30-03-2011 18:41:02 14.2 C 7.08 g/m*3 14.2 C 0 km/h
335 30-03-2011 18:53:02 13.6 C 7.18 g/m*3 13.6 C 0 km/h
336 30-03-2011 19:05:03 13.4 C 6.97 g/m*3 13.4 C 0 km/h
337 30-03-2011 19:17:02 13.2 C 6.32 g/m*3 13.2 C 0 km/h
338 30-03-2011 19:29:02 12.7 C 6.23 g/m*3 12.7 C 0 km/h
339 30-03-2011 19:41:02 12.2 C 6.04 g/m*3 12.2 C 0 km/h
340 30-03-2011 19:53:02 12 C 6.18 g/m*3 12 C 0 km/h
341 30-03-2011 20:05:02 11.7 C 6.28 g/m*3 11.7 C 0 km/h
342 30-03-2011 20:17:01 11.6 C 6.34 g/m*3 11.6 C 0 km/h
343 30-03-2011 20:29:01 11.4 C 6.47 g/m*3 11.4 C 0 km/h
344 30-03-2011 20:41:02 11.3 C 6.63 g/m*3 11.3 C 0 km/h
345 30-03-2011 20:53:02 11.5 C 6.71 g/m*3 11.5 C 0 km/h
346 30-03-2011 21:05:02 10.8 C 6.52 g/m*3 10.8 C 0 km/h
347 30-03-2011 21:17:02 10.4 C 6.65 g/m*3 10.4 C 0 km/h
348 30-03-2011 21:29:02 10.3 C 6.7 g/m*3 10.3 C 0 km/h
349 30-03-2011 21:41:02 10.2 C 6.76 g/m*3 10.2 C 0 km/h
350 30-03-2011 21:53:02 10.1 C 6.81 g/m*3 10.1 C 0 km/h
Sensor: Nr:Datum:Temp:Abs-Feuchte:Windchill:Wind:
Aussen-T/F 351 30-03-2011 22:06:49 10.2 C 6.85 g/m*3 10.2 C 0 km/h
352 30-03-2011 22:18:49 10.2 C 6.85 g/m*3 10.2 C 0 km/h
353 30-03-2011 22:30:49 10 C 6.77 g/m*3 10 C 0 km/h
354 30-03-2011 22:42:49 9.6 C 6.78 g/m*3 9.6 C 0 km/h
355 30-03-2011 22:54:49 9 C 6.61 g/m*3 9 C 0 km/h
356 30-03-2011 23:06:49 9.1 C 6.83 g/m*3 9.1 C 0 km/h
357 30-03-2011 23:18:49 9.3 C 7.01 g/m*3 9.3 C 0 km/h
358 30-03-2011 23:30:49 9.7 C 7.1 g/m*3 9.7 C 0 km/h
359 30-03-2011 23:42:49 9.8 C 7.05 g/m*3 9.8 C 0 km/h
360 30-03-2011 23:54:49 9.7 C 7.01 g/m*3 9.7 C 0 km/h

Legende:
   Min
   Max


Maximal/Minimal-Werte vom 23.02.2003 - 29.09.2020

Sensor Min Max Avg
Temp
(Aussen-T/F)
-16.4 °C
20-12-2009  01:30:01
40.4 °C
25-07-2019  16:20:00
11.32 °C

Die Daten stammen von einer Davis Vantage Pro 2 Wetter-Station und werden unter Linux mit der Software wview2wettercgi und aufbereitet. Alle Angaben erfolgen ohne Gewähr für ihre Vollständigkeit oder Richtigkeit.
Kontakt: Rainer Krienke krienke@uni-koblenz.de . Meine Webseiten an der Uni Koblenz oder privat.
Version: $Revision: 0.78 $